Wind_Speed
20 21 23 24 22 21 21 21 21 22 21 21 21 21 22 22 23 24 24 25 26 26 27 27 27 27 27 26 25 24 23 22 20 19 17 17 16 16 15 14 13 13 11
21 22 23 23 23 22 23 23 22 23 23 23 23 22 22 23 24 25 26 27 27 29 29 29 30 29 29 29 28 27 26 25 23 22 20 19 18 18 17 16 15 14 13
22 22 23 23 22 23 23 24 24 24 23 24 23 23 22 23 24 25 27 28 28 29 31 31 31 32 31 31 30 30 29 28 26 24 23 21 20 20 19 18 17 16 15
21 22 23 24 24 24 24 24 24 25 25 25 24 24 24 24 24 25 27 27 28 30 32 33 32 33 33 33 32 32 32 30 29 27 25 24 23 22 21 19 19 18 17
23 23 24 25 25 26 26 26 26 27 27 27 26 25 25 25 25 26 27 27 28 29 32 34 35 34 34 34 34 34 34 33 31 29 28 26 25 24 23 22 21 20 19
24 25 26 27 28 28 28 28 28 29 29 28 28 27 27 27 27 27 27 27 28 29 31 33 35 36 36 35 34 34 35 36 34 31 30 28 27 26 25 24 23 22 22
25 26 27 28 29 30 30 30 30 30 30 30 30 29 29 29 28 29 28 29 29 30 32 33 35 35 36 36 35 35 35 36 35 34 32 30 29 28 26 25 24 24 23
26 27 28 30 30 31 31 32 32 31 31 31 31 31 30 30 30 30 30 30 30 31 33 35 34 36 37 36 36 35 35 35 36 35 34 32 31 29 28 27 25 25 25
27 28 29 30 30 31 31 32 32 32 32 32 33 33 32 32 32 31 32 32 31 32 33 35 35 35 37 37 37 38 36 36 36 36 35 34 33 31 29 28 27 26 25
28 29 30 30 30 31 32 32 33 33 33 34 34 34 34 34 34 33 33 34 33 33 34 35 36 36 37 39 39 39 38 38 37 37 36 35 34 33 31 29 28 27 26
29 30 30 31 31 32 32 33 33 34 34 35 35 35 36 36 36 36 35 35 35 35 35 36 36 37 37 39 41 41 40 40 39 38 37 36 36 34 32 30 29 28 26
30 30 31 31 32 32 32 33 34 34 35 35 35 36 36 37 37 37 37 37 37 37 37 36 37 38 38 39 40 41 42 42 41 40 39 37 36 35 33 32 30 28 27
30 30 31 31 32 32 33 33 34 34 35 35 36 36 37 38 38 38 38 38 39 39 39 38 37 38 39 40 41 42 43 43 43 42 41 40 38 36 34 33 31 29 28
30 30 31 31 32 33 33 34 34 35 35 36 36 37 37 38 39 39 39 39 39 40 40 40 39 38 39 40 41 42 43 44 43 43 42 41 40 37 35 34 32 31 29
29 30 31 31 32 32 32 33 33 34 35 36 37 38 38 39 39 40 40 40 40 40 40 40 41 41 40 41 41 42 44 45 45 44 44 43 41 39 37 35 34 32 30
30 31 31 32 32 32 32 33 34 34 35 36 37 38 39 40 40 41 41 41 41 42 41 41 42 42 41 42 42 43 44 45 46 45 45 44 42 40 39 37 35 33 32
31 32 32 32 33 33 33 34 35 35 36 37 38 38 39 40 41 41 42 42 42 42 42 43 44 43 43 43 43 43 45 45 46 47 46 46 44 42 40 38 36 35 33
33 33 33 33 34 34 35 35 36 37 37 38 39 39 39 40 41 42 43 43 44 44 44 44 45 45 44 44 44 44 46 47 47 47 47 46 45 43 41 40 38 36 35
35 35 35 35 35 35 36 37 37 37 37 37 38 39 39 40 41 42 43 44 45 45 45 45 45 47 46 45 44 45 46 48 48 48 47 47 46 45 44 42 40 38 36
37 36 36 36 36 37 37 36 36 36 36 36 37 37 38 39 40 42 43 45 46 46 46 46 46 47 48 47 46 45 46 47 49 49 49 48 47 47 46 44 42 40 38
38 38 37 37 37 37 36 36 36 36 36 36 37 37 38 39 40 41 43 44 46 47 47 47 47 48 48 48 48 47 47 48 49 49 49 49 49 49 48 46 45 43 41
40 39 38 38 37 36 36 36 36 36 36 36 37 37 38 38 39 41 42 44 46 47 48 48 48 48 49 49 50 49 48 49 50 50 50 50 50 50 49 48 47 45 43
41 40 39 38 37 36 36 35 36 36 35 36 36 37 38 39 40 41 43 44 46 48 49 50 50 50 50 50 50 50 50 51 51 51 51 51 51 50 50 49 48 47 46
41 40 39 38 37 36 36 36 36 35 35 36 36 36 37 38 40 41 42 44 46 48 49 50 51 52 52 51 51 51 50 49 51 52 51 51 52 51 51 49 49 48 48
41 40 38 37 36 36 36 35 35 35 34 34 35 36 36 37 39 40 41 43 45 47 49 50 51 53 54 53 51 52 51 50 50 52 53 52 52 52 51 51 50 49 48
41 39 37 36 37 36 35 35 34 34 34 34 34 35 35 36 36 37 38 40 43 45 48 50 51 53 54 55 54 53 53 52 51 52 52 52 52 53 52 52 51 50 49
Wind_Direction
269 273 271 270 273 275 276 275 274 277 277 275 275 270 264 261 257 252 248 246 242 239 237 235 232 227 226 225 222 220 219 217 217 216 217 217 217 215 214 213 211 211 211
272 274 278 277 275 277 275 275 276 278 276 275 276 275 268 263 258 254 250 248 245 240 238 236 234 231 228 226 225 222 221 219 218 218 219 219 219 218 217 217 216 215 215
275 277 278 279 278 278 277 275 275 277 276 275 275 273 271 266 264 258 253 250 246 241 238 236 234 233 230 228 226 223 222 221 220 219 220 221 220 220 220 220 219 218 219
281 280 279 277 277 279 280 277 276 278 277 276 274 270 268 268 266 261 255 251 248 244 239 236 234 233 233 231 228 225 222 223 222 220 221 222 222 222 222 222 223 223 222
281 281 280 279 279 278 278 279 278 277 276 274 273 271 269 267 266 264 257 253 250 246 241 238 236 235 234 233 231 228 224 223 222 220 220 222 223 223 223 225 226 226 225
284 283 280 279 279 279 278 277 277 276 275 273 271 270 268 266 264 262 258 254 251 247 242 238 236 236 236 235 233 230 226 223 222 221 221 221 222 224 224 226 227 228 228
284 283 281 280 279 279 278 277 276 274 272 271 269 268 266 264 262 260 258 255 251 247 243 239 237 236 235 235 234 230 227 224 223 222 222 222 223 224 226 227 227 229 229
286 284 283 282 281 280 278 277 276 273 271 269 267 265 264 262 261 259 257 255 251 248 243 240 238 236 235 235 234 230 228 226 225 223 221 222 223 224 226 227 228 228 230
290 288 286 285 283 281 279 277 275 273 271 268 266 264 262 260 259 257 257 254 251 248 244 240 238 237 236 235 233 230 229 228 226 225 222 223 223 224 225 227 229 229 230
293 291 289 287 285 282 280 278 276 274 271 268 266 263 261 259 257 255 255 254 251 249 244 240 239 238 236 235 232 231 230 228 227 227 225 224 223 223 224 226 228 229 231
295 294 292 290 287 284 281 279 276 274 272 269 267 264 261 259 257 254 252 252 251 249 246 242 240 239 238 234 231 230 229 228 227 226 225 224 222 222 223 225 226 228 229
298 296 295 293 290 287 284 281 278 275 272 270 267 264 262 259 257 254 251 250 249 248 245 243 241 240 238 233 231 229 228 227 226 226 225 224 222 222 223 224 224 226 228
300 298 296 293 292 289 286 283 280 277 275 272 268 265 262 260 257 255 251 248 247 246 244 242 241 239 236 233 231 229 227 226 225 225 223 222 223 222 222 223 223 225 227
302 299 297 295 293 290 287 284 281 278 276 273 270 267 263 261 258 255 252 249 246 244 243 241 239 238 235 231 229 229 228 225 224 223 222 221 221 221 221 222 223 224 226
304 302 299 297 294 291 288 285 282 280 278 274 271 268 265 261 258 255 252 249 245 243 242 241 239 237 235 231 228 228 227 225 223 222 221 221 221 221 221 222 223 223 224
306 303 300 298 296 293 290 287 284 282 279 275 272 268 265 262 259 256 252 249 246 243 241 240 238 236 234 230 229 227 225 224 222 221 221 220 220 220 220 221 222 223 224
308 306 302 299 296 294 291 288 286 283 281 277 273 269 266 263 259 256 252 249 246 243 240 238 236 235 234 232 229 226 223 222 221 220 221 220 220 219 220 220 221 222 223
311 307 304 300 297 295 292 289 287 285 281 278 274 270 266 263 259 255 251 248 245 243 240 237 235 234 234 232 229 226 224 222 221 220 220 220 219 219 219 219 220 221 222
313 309 306 302 299 296 294 292 289 287 283 279 275 271 267 263 259 255 251 248 245 242 240 237 235 234 233 233 230 228 226 223 221 220 219 219 219 219 218 219 220 221 221
315 311 308 305 302 299 296 293 291 288 284 280 276 271 267 264 260 255 251 248 245 242 239 237 234 233 232 231 230 230 227 224 221 220 220 219 219 219 219 219 219 220 220
316 313 309 306 304 301 298 295 293 290 286 281 277 272 268 264 260 256 252 249 245 242 239 236 234 232 230 229 228 229 228 226 224 221 219 218 218 219 219 219 219 220 220
318 314 311 308 306 303 299 297 294 291 288 283 279 274 269 266 261 257 253 249 245 241 239 235 232 230 229 227 226 226 227 225 222 220 219 218 218 218 219 218 219 220 220
319 316 313 311 308 304 301 298 296 293 290 286 281 277 271 267 263 259 254 250 245 241 238 235 232 230 228 226 225 224 225 224 222 221 220 219 219 218 218 219 220 220 220
320 318 315 313 310 307 304 301 298 295 292 288 283 279 273 268 264 260 255 250 245 240 237 235 232 230 228 226 224 223 223 224 223 221 219 219 219 219 219 219 219 220 220
321 319 317 315 313 310 307 303 301 298 295 290 285 280 276 271 265 259 254 249 244 239 236 233 231 229 228 226 224 223 223 223 221 220 220 219 217 218 218 219 219 220 221
322 320 318 316 314 312 309 306 303 301 297 293 288 282 278 273 267 260 253 248 242 238 235 232 230 229 227 226 224 223 222 223 222 221 220 219 217 218 218 218 219 220 221
Height
5877 5877 5877 5877 5877 5876 5876 5876 5875 5875 5875 5875 5875 5875 5875 5876 5876 5877 5879 5880 5882 5884 5885 5887 5888 5890 5893 5895 5897 5900 5902 5904 5906 5909 5911 5913 5915 5917 5918 5920 5922 5924 5925
5872 5872 5872 5871 5871 5871 5871 5870 5870 5870 5870 5869 5869 5869 5869 5870 5871 5872 5873 5874 5876 5878 5879 5881 5883 5885 5887 5890 5893 5895 5898 5901 5903 5905 5908 5910 5912 5914 5916 5918 5920 5922 5924
5868 5867 5867 5866 5866 5866 5865 5865 5864 5864 5864 5864 5864 5864 5864 5864 5865 5866 5866 5868 5869 5871 5873 5875 5877 5880 5882 5884 5887 5890 5893 5896 5899 5902 5904 5907 5909 5912 5914 5916 5918 5920 5922
5863 5862 5862 5861 5861 5860 5859 5859 5858 5858 5858 5858 5857 5857 5858 5858 5859 5859 5860 5861 5863 5864 5866 5868 5871 5873 5876 5879 5881 5885 5888 5891 5894 5897 5900 5903 5906 5908 5911 5913 5916 5918 5920
5858 5857 5856 5855 5855 5854 5853 5853 5852 5852 5851 5851 5850 5850 5851 5852 5852 5852 5853 5854 5856 5857 5859 5862 5864 5867 5870 5872 5876 5878 5882 5885 5889 5892 5895 5899 5902 5905 5907 5910 5913 5915 5917
5852 5851 5850 5849 5848 5847 5846 5846 5845 5844 5844 5844 5844 5844 5844 5844 5845 5845 5846 5847 5849 5851 5852 5854 5857 5860 5863 5866 5869 5872 5875 5879 5883 5887 5890 5894 5897 5900 5903 5906 5909 5911 5914
5847 5845 5844 5842 5841 5840 5839 5838 5837 5837 5836 5836 5836 5837 5837 5837 5838 5838 5839 5841 5842 5843 5845 5847 5850 5853 5856 5859 5862 5866 5869 5873 5877 5881 5885 5889 5892 5896 5899 5902 5904 5907 5910
5840 5838 5837 5835 5833 5832 5830 5829 5829 5828 5828 5828 5828 5828 5829 5830 5830 5831 5832 5833 5834 5836 5838 5840 5842 5845 5849 5852 5856 5859 5863 5867 5871 5874 5879 5883 5887 5891 5894 5897 5900 5903 5906
5833 5831 5829 5827 5825 5823 5822 5821 5820 5819 5819 5819 5819 5819 5820 5821 5822 5823 5824 5825 5826 5828 5830 5832 5835 5838 5841 5844 5848 5853 5857 5861 5864 5868 5873 5877 5882 5886 5889 5893 5896 5898 5901
5825 5822 5820 5818 5816 5814 5813 5812 5811 5810 5810 5810 5810 5810 5811 5811 5812 5814 5816 5816 5818 5820 5822 5824 5827 5830 5833 5836 5840 5845 5849 5854 5858 5862 5867 5871 5875 5880 5884 5887 5891 5894 5896
5817 5814 5812 5809 5807 5805 5804 5803 5802 5801 5800 5800 5800 5800 5801 5802 5803 5805 5807 5808 5809 5811 5813 5816 5819 5821 5824 5828 5832 5837 5842 5846 5851 5856 5860 5865 5869 5873 5878 5882 5886 5889 5892
5809 5806 5803 5801 5799 5797 5795 5793 5792 5791 5790 5790 5790 5790 5791 5792 5793 5794 5797 5798 5800 5802 5804 5807 5810 5813 5816 5819 5823 5828 5833 5838 5843 5848 5853 5858 5863 5867 5872 5876 5880 5884 5887
5802 5798 5796 5793 5790 5788 5785 5784 5782 5781 5780 5780 5779 5779 5780 5781 5782 5784 5786 5788 5790 5792 5795 5798 5800 5804 5807 5811 5815 5820 5825 5830 5835 5841 5846 5851 5856 5861 5866 5870 5874 5878 5882
5794 5791 5788 5785 5782 5779 5776 5774 5772 5771 5770 5769 5769 5769 5769 5770 5771 5773 5775 5778 5780 5783 5785 5788 5791 5794 5798 5801 5806 5811 5816 5821 5827 5833 5838 5844 5850 5855 5859 5864 5868 5873 5877
5787 5783 5780 5776 5773 5770 5767 5765 5763 5761 5759 5759 5758 5758 5758 5759 5760 5762 5764 5766 5770 5772 5775 5778 5781 5784 5788 5792 5797 5802 5807 5813 5819 5825 5831 5837 5842 5848 5853 5858 5862 5867 5871
5780 5775 5771 5767 5764 5761 5758 5755 5752 5751 5749 5748 5747 5747 5747 5747 5749 5750 5752 5755 5758 5761 5765 5768 5771 5774 5778 5783 5788 5793 5798 5804 5810 5816 5822 5829 5835 5840 5846 5851 5856 5861 5865
5771 5767 5763 5758 5755 5751 5748 5745 5742 5740 5738 5736 5735 5735 5735 5735 5736 5738 5740 5743 5746 5749 5754 5757 5760 5764 5769 5773 5778 5783 5789 5794 5801 5807 5814 5820 5827 5833 5838 5844 5849 5854 5859
5763 5758 5754 5749 5745 5741 5738 5734 5731 5728 5726 5724 5723 5722 5722 5722 5724 5725 5728 5731 5734 5737 5742 5746 5749 5754 5759 5763 5769 5774 5780 5785 5791 5798 5805 5811 5818 5825 5831 5837 5842 5847 5852
5754 5749 5744 5739 5735 5731 5727 5723 5719 5716 5714 5712 5710 5709 5709 5709 5710 5712 5714 5717 5721 5724 5729 5734 5738 5743 5748 5753 5758 5764 5769 5775 5782 5788 5795 5802 5809 5816 5823 5829 5835 5840 5846
5745 5739 5734 5729 5724 5719 5715 5711 5708 5704 5702 5699 5697 5696 5696 5696 5697 5699 5701 5704 5707 5711 5716 5721 5726 5731 5737 5742 5748 5754 5759 5765 5771 5778 5785 5792 5800 5807 5814 5821 5827 5833 5838
5735 5729 5724 5718 5713 5708 5704 5700 5696 5692 5689 5687 5685 5683 5683 5683 5683 5685 5687 5690 5694 5698 5703 5708 5714 5719 5725 5731 5738 5743 5749 5755 5761 5768 5775 5783 5790 5798 5804 5811 5818 5825 5831
5726 5719 5713 5707 5702 5697 5692 5688 5684 5680 5677 5674 5672 5670 5669 5669 5670 5671 5674 5676 5680 5684 5689 5695 5701 5707 5713 5719 5726 5732 5738 5744 5751 5759 5765 5773 5780 5788 5795 5803 5810 5816 5823
5716 5709 5703 5697 5691 5686 5681 5676 5672 5668 5665 5661 5659 5657 5656 5655 5656 5657 5659 5662 5665 5670 5675 5681 5687 5694 5701 5708 5714 5721 5727 5733 5741 5748 5755 5762 5770 5778 5785 5793 5800 5807 5814
5706 5699 5693 5686 5680 5675 5670 5665 5660 5656 5652 5649 5646 5644 5642 5641 5641 5642 5644 5647 5651 5655 5661 5667 5675 5681 5687 5694 5702 5709 5715 5722 5729 5736 5744 5751 5759 5767 5775 5783 5791 5798 5805
5697 5690 5683 5677 5670 5665 5659 5654 5649 5644 5640 5637 5633 5631 5628 5627 5627 5627 5629 5632 5636 5640 5646 5653 5660 5666 5674 5681 5689 5696 5703 5711 5718 5726 5733 5741 5749 5757 5764 5773 5780 5788 5795
5688 5681 5674 5667 5661 5655 5649 5643 5638 5633 5629 5625 5621 5618 5615 5614 5612 5613 5614 5617 5621 5626 5631 5638 5645 5653 5660 5668 5676 5684 5692 5699 5707 5715 5723 5731 5739 5747 5755 5763 5771 5779 5786